Weather History for Garden City, KS

Change the Weather History Date:

Sunday, September 22, 2013

  Actual Average Record
Temperature  
Mean Temperature 70 °F 65 °F  
Max Temperature 87 °F 80 °F 92 °F (1968)
Min Temperature 52 °F 51 °F 29 °F (1995)
Degree Days  
Heating Degree Days 0 3  
Month to date heating degree days 6 32  
Since 1 July heating degree days 6 36  
Cooling Degree Days 5 4  
Month to date cooling degree days 203 140  
Year to date cooling degree days 1545 1256  
Growing Degree Days 19 (Base 50)    
Moisture  
Dew Point 48 °F    
Average Humidity 50    
Maximum Humidity 77    
Minimum Humidity 23    
Precipitation  
Precipitation 0.00 in 0.05 in 1.51 in (2004)
Month to date precipitation 1.22 1.12  
Year to date precipitation 11.39 16.77  
Sea Level Pressure  
Sea Level Pressure 29.71 in    
Wind  
Wind Speed 17 mph (South)    
Max Wind Speed 31 mph    
Max Gust Speed 40 mph    
Visibility 10 miles    
Events      
T = Trace of Precipitation, MM = Missing Value Source: NWS Daily Summary

Daily Weather History Graph

Daily Weather History Graph

Search for Another Location

Airport:

Trip Planner

Search our weather history database for the weather conditions in past years. The results will help you decide how hot, cold, wet, or windy it might be!

Date:

Astronomy

Sep. 22, 2013 Rise Set
Actual Time 7:30 AM CDT 7:39 PM CDT
Civil Twilight 7:04 AM CDT 8:05 PM CDT
Nautical Twilight 6:33 AM CDT 8:36 PM CDT
Astronomical Twilight 6:02 AM CDT 9:07 PM CDT
Moon 9:34 PM CDT (9/22) 10:49 AM CDT (9/22)
Length of Visible Light 13h 00m
Length of Day
12h 08m
Waning Gibbous, 88% of the Moon is Illuminated
Sep 22
Waning Gibbous
Sep 26
Last Quarter
Oct 4
New
Oct 11
First Quarter
Oct 18
Full

Hourly Weather History & Observations

Time (CDT) Temp. Heat Index Dew Point Humidity Pressure Visibility Wind Dir Wind Speed Gust Speed Precip Events Conditions
12:54 AM 60.1 °F - 44.1 °F 55% 29.80 in 10.0 mi South 11.5 mph - N/A   Clear
1:54 AM 57.9 °F - 44.1 °F 60% 29.79 in 10.0 mi South 10.4 mph - N/A   Clear
2:54 AM 55.9 °F - 44.1 °F 64% 29.79 in 10.0 mi SSE 8.1 mph - N/A   Clear
3:54 AM 55.0 °F - 44.1 °F 67% 29.77 in 10.0 mi SSE 10.4 mph - N/A   Clear
4:54 AM 54.0 °F - 44.1 °F 69% 29.76 in 10.0 mi SSE 10.4 mph - N/A   Clear
5:54 AM 53.1 °F - 44.1 °F 71% 29.76 in 10.0 mi SSE 11.5 mph - N/A   Clear
6:54 AM 52.0 °F - 45.0 °F 77% 29.77 in 10.0 mi SSE 8.1 mph - N/A   Clear
7:54 AM 53.1 °F - 45.0 °F 74% 29.78 in 10.0 mi SSE 10.4 mph - N/A   Clear
8:54 AM 59.0 °F - 46.9 °F 64% 29.78 in 10.0 mi South 13.8 mph - N/A   Clear
9:54 AM 66.9 °F - 50.0 °F 54% 29.77 in 10.0 mi South 16.1 mph 23.0 mph N/A   Clear
10:54 AM 73.0 °F - 52.0 °F 48% 29.75 in 10.0 mi South 23.0 mph 27.6 mph N/A   Clear
11:54 AM 78.1 °F - 54.0 °F 43% 29.73 in 10.0 mi South 25.3 mph 36.8 mph N/A   Clear
12:54 PM 82.9 °F 81.9 °F 54.0 °F 37% 29.70 in 10.0 mi South 23.0 mph 34.5 mph N/A   Clear
1:54 PM 84.9 °F 83.3 °F 54.0 °F 34% 29.68 in 10.0 mi South 19.6 mph 32.2 mph N/A   Clear
2:54 PM 86.0 °F - 51.1 °F 30% 29.66 in 10.0 mi South 21.9 mph 33.4 mph N/A   Clear
3:54 PM 86.0 °F - 48.9 °F 28% 29.64 in 10.0 mi South 23.0 mph 35.7 mph N/A   Clear
4:54 PM 84.9 °F - 46.9 °F 27% 29.62 in 10.0 mi South 25.3 mph 33.4 mph N/A   Clear
5:54 PM 84.0 °F - 43.0 °F 24% 29.62 in 10.0 mi South 23.0 mph 32.2 mph N/A   Clear
6:54 PM 80.1 °F - 50.0 °F 35% 29.62 in 10.0 mi South 23.0 mph 32.2 mph N/A   Clear
7:54 PM 75.0 °F - 50.0 °F 41% 29.63 in 10.0 mi South 17.3 mph 28.8 mph N/A   Clear
8:54 PM 71.1 °F - 48.0 °F 44% 29.64 in 10.0 mi SSE 18.4 mph 31.1 mph N/A   Clear
9:54 PM 69.1 °F - 48.0 °F 47% 29.64 in 10.0 mi SSE 18.4 mph 29.9 mph N/A   Clear
10:54 PM 68.0 °F - 46.9 °F 47% 29.62 in 10.0 mi SSE 19.6 mph 33.4 mph N/A   Clear
11:54 PM 66.0 °F - 46.0 °F 48% 29.61 in 10.0 mi SSE 17.3 mph 27.6 mph N/A   Clear